User: anonymous   Login
Location: Newark
(41.6500°N, 71.4833°W)
Time: 22:34:52
(UTC+00:00)
Language:

Altair - Orbit

View from above orbital plane
View from above orbital plane
View from above satellite
View from above satellite

Ground track
Ground track

The orbit data is extracted from the following two-line orbital elements,

1    50U 60009B   20022.53426547 -.00000081 +00000-0 +31771-4 0  9995
2    50 047.2285 217.2575 0113296 247.8230 111.0504 12.20108926652288
Epoch (UTC): 22 January 2020 12:49:20
Eccentricity: 0.0113296
inclination: 47.2285°
perigee height: 1502 km
apogee height: 1682 km
right ascension of ascending node: 217.2575°
argument of perigee: 247.8230°
revolutions per day: 12.20108926
mean anomaly at epoch: 111.0504°
orbit number at epoch: 65228

The dashed part of the orbit path shows where the satellite is in the earth's shadow,  

DLR